User:    Logout
Location:
(unspecified)
Time: 11:41:50
(UTC+00:00)
Language:

Iridium 62 - Orbit

View from above orbital plane
View from above orbital plane
View from above satellite
View from above satellite

Ground track
Ground track

The orbit data is extracted from the following two-line orbital elements,

1 25285U 98021A   17209.93519975 +.00000013 +00000-0 -25301-5 0  9990
2 25285 086.3960 206.4516 0002191 090.4291 269.7156 14.34215732011019
Epoch (UTC): 28 July 2017 22:26:41
Eccentricity: 0.0002191
inclination: 86.3960°
perigee height: 776 km
apogee height: 779 km
right ascension of ascending node: 206.4516°
argument of perigee: 90.4291°
revolutions per day: 14.34215732
mean anomaly at epoch: 269.7156°
orbit number at epoch: 1101

The dashed part of the orbit path shows where the satellite is in the earth's shadow,  

DLR